COSMOS 970 DEB, 10570

Orbit data source: Space-Track

COSMOS 970 DEB, 10570 is space debris in LEO originally from a launch on Wed, 21 Dec 1977 UTC launched from the Tyuratam Missile And Space Complex (TTMTR). Debris objects in space refer to the collection of defunct objects orbiting the Earth. Examples of debris include non-operational satellites, rocket bodies, and fragments generated from explosions, collisions, or faulty payload assembly.

Loading next visibility...
Identifier
10570, 1977-121M
Orbit
LEO
Country
Flag of CISCIS
Related business
Manufacturer
Unknown
Mission
Spacecraft
Bus & Motor
Unknown
Mass
Unknown
Launch date (UTC)
1977-12-21 (48 years ago)
Launch vehicle
Unknown
Launch site
Tyuratam Missile And Space Complex (TTMTR)
Object type
Payload
Rocket body
Debris
Shape & HBR
Unknown shape, 0.1 m
Radar Cross Section
Medium (>0.1 m² and <1 m²)

Expand to show TLE details & history
Last TLE update: 1 day ago

TLE from 1 day ago
0 COSMOS 970 DEB
1 10570U 77121M   26170.87601845  .00001351  00000-0  12444-2 0  9993
2 10570  65.3593  68.5129 0012469 289.5353 141.9641 13.86116407408144
Epoch: 2026-06-19T21:01Z
TLE epoch observation values (Epoch: 2026-06-19T21:01:27.994Z)
Latitude
59.70607°
Longitude
-103.59431°
Altitude
958.657 km
Speed
7.375 km/s
True Right ascension
07h 59m 29s
True Declination
59° 33' 37"
Sunlit
Object was in daylight at epoch
Visualization orbit readout
Latitude
Unknown
Longitude
Unknown
Altitude
Unknown
Speed
Unknown
Apparent Right ascension
Unknown
Apparent Declination
Unknown
Sunlit
N/A
Visualization observer readout
Local Sidereal Time
10:12:23
Azimuth
Unknown
Elevation
Unknown
Doppler factor
Unknown
Orbital elements
Apogee altitude
949.964 km
Perigee altitude
931.712 km
Semi-major axis
7,318.975 km
Eccentricity
0.00125
Inclination
65.3593°
RAAN
68.5129°
Arg. of periapsis
289.5353°
True anomaly
142.05203°
Mean anomaly
141.9641°
Eccentric anomaly
142.00808°
Mean motion
3.46631 °/min
Orbital period
103.86 mins
BSTAR
0.0012444
Loading maneuver chart data...
Computing Atmospheric mass density...
Loading historical data...
Loading historical data...
Loading historical data...
Loading historical data...
Loading historical data...
Loading historical data...
Loading historical data...

Documentation

Showing up to 5 results
|